Voltar ao catálogo

STARLINK-4715

AtivoComunicaçõesVLEO
NORAD 53801·PAYLOAD·🇺🇸 United States

Lançado Sep 11, 2022 de Cape Canaveral Space Force Station

Loading…

Próximas Passagens (próximas 24 horas)

TLE

AtualizadoSource: CelesTrak SupGP

Época: Sep 14, 2026, 22:08 UTC

1 53801C 22111AE  26257.92270833 -.00002848  00000+0 -84155-4 0  2577
2 53801  53.1590 119.4865 0001379  81.8572 181.0182 15.34386025    16

Acompanhe STARLINK-4715 em tempo real com AllMySat

Download on the App Store